星链-5313 (STARLINK-5313 )

导读

STARLINK-5313是美国太空探索技术公司(SpaceX)于2023年1月19日发射的星链(Starlink)低轨卫星,星链计划旨在构建覆盖全球的巨型低轨卫星互联网星座,可为全球服务不足区域提供高速宽带互联网接入。该卫星属于星链星座的一员,运行于近地轨道,依托氪工质霍尔推进器等技术支持,目前随整个星链星座为全球用户提供卫星互联网服务,星链整体计划最终将部署数万颗卫星。

Basic Information
目录编号:
55313
目录名称:
STARLINK-5313
国际标识:
2023-010AW
轨道中心:
EARTH
卫星名称:
星链-5313
卫星全名:
星链-5313 (STARLINK-5313 )
卫星状态:
在轨 (已飞行1324 天)
发射日期:
2023-01-19 UTC
国别 :
美国 (US)
星等 :
--
Orbit Information
数据来源 国际轨道数据
星历时间: 2026-09-04T10:05:16+0800
15小时前
查看轨道信息
半长轴: 6950.201km
偏心率: 0.000377
轨道倾角: 69.998°
近地点辐角 266.714°
升交点赤经 274.685°
平近点角 93.359°
近地点: 569.443km
远地点: 574.685km
周期: 96.107分钟
每日圈数: 14.983274
Detailed Information
固有亮度:
5
最大亮度:
2.5
卫星平台:
Starlink v1.5
覆盖范围:
全球
运营商:
太空探索技术公司
运营商所在国:
美国
制造商(研发单位):
太空探索技术公司
制造商所在国:
美国
使用方式:
暂无
Satellite Introduction
星链(Starlink)计划是由太空探索技术公司(SpaceX)提出的一个巨型低轨卫星互联网星座项目,计划在2019年至2024年间在太空搭建由约1.2万颗卫星组成的“星链”网络,其中1584颗将部署在地球上空550千米处的近地轨道,并从2020年开始工作。该卫星仍在工作。
2D Orbit Map
3D Orbit Map
Orbit Altitude Analysis Chart
Orbit Inclination Analysis Chart
Orbit Comprehensive Analysis Chart
View Comprehensive Chart
Conjunction Data List
Event ID Objects TCA Miss Dist (km) Collision Risk Probability Collision Risk Index (CRI) Action
CDM_260905-185004-435105-531322
2026-09-05T
18:50:28+0000
2.383 km
极远距离
1.265899E-6 低风险 0.37